Tracking 19800 objects as of 24-Jul-2019
HD Live streaming from Space Station
objects crossing your sky now

COSMOS 1275 DEB

Track COSMOS 1275 DEB now!
10-day predictions


NORAD ID: 13619
Int'l Code: 1981-053GQ
Perigee: 874.5 km
Apogee: 922.7 km
Inclination: 83.0 °
Period: 102.8 minutes
Semi major axis: 7269 km
RCS: 0.0428 m2 (small)
Launch date: June 4, 1981
Source: Commonwealth of Independent States (former USSR) (CIS)
Launch site: PLESETSK MISSILE AND SPACE COMPLEX (PKMTR)

Note: This is SATELLITE DEBRIS
aabbcc
Your satellite tracking list
Your tracking list is empty




NASA's NSSDC Master Catalog

Two Line Element Set (TLE):
1 13619U 81053GM  19204.87892685 +.00000519 +00000-0 +33642-3 0  9992
2 13619 083.0345 240.7681 0033143 185.2956 229.9134 14.00683049869528
Source of the keplerian elements: AFSPC